カタログに戻る

WFOV

USA 332

運用中軍事GEO
NORAD 52940·PAYLOAD·🇺🇸 United States

打ち上げ Jul 1, 2022 から Cape Canaveral Space Force Station

Loading…

TLE

最新Source: Space-Track

元期: Sep 14, 2026, 12:39 UTC

1 52940U 22073A   26257.52746870 -.00000369  00000-0  00000-0 0  9994
2 52940   3.9341  77.3355 0002705 168.4011  56.9160  1.00267765 15262

AllMySatでWFOVをリアルタイム追跡

Download on the App Store